Measurements were made at the meteorological tower in Juelich (50.90 N / 6.40 E) at an altitude of 20 m,
"Instrument: Carbon Dioxide Isotope Analyzer (CCIA), Los Gatos Inc.",
Responsible PI: Dr. Marc von Hobe; Forschungszentrum Juelich GmbH; IEK-7; email: m.von.hobe@fz-juelich.de,
NaN or negative numbers are fill values (i.e. no valid measurements were made at that time),
Uncertainties are given as the 1-sigma standard deviation over each 10 minute intervals. In each interval ~600 individual measurements are carried out so that the standard error of the mean is approximately sigma/sqrt(600).,
time_utc,CO2_ppm,stdev_CO2_ppm,H2O_ppm,stdev_H2O_ppm
"2015-01-01 00:05:00 000",432.075,1.05252,5572.70,82.3971
"2015-01-01 00:15:00 000",433.047,0.776636,5649.05,31.8980
"2015-01-01 00:25:00 000",433.246,0.703024,5705.10,46.4138
"2015-01-01 00:35:00 000",433.264,0.724163,5647.13,49.6861
"2015-01-01 00:45:00 000",433.371,0.684248,5480.55,72.7376
"2015-01-01 00:55:00 000",433.084,0.709051,5337.41,32.9616
"2015-01-01 01:05:00 000",432.286,0.846511,5499.86,57.4136
"2015-01-01 01:15:00 000",432.830,0.888743,5681.89,58.0574
"2015-01-01 01:25:00 000",433.138,1.00120,5788.35,67.4484
"2015-01-01 01:35:00 000",434.367,0.759130,5560.65,76.8946
"2015-01-01 01:45:00 000",433.516,0.735809,5398.20,72.3217
"2015-01-01 01:55:00 000",433.917,0.875025,5248.57,55.8483
"2015-01-01 02:05:00 000",434.381,0.851891,5027.48,99.1672
"2015-01-01 02:15:00 000",434.098,1.06386,5206.57,39.5061
"2015-01-01 02:25:00 000",432.708,0.876115,5200.42,34.2295
"2015-01-01 02:35:00 000",432.011,0.984049,5219.21,58.2901
"2015-01-01 02:45:00 000",432.130,0.866810,4974.30,78.5628
"2015-01-01 02:55:00 000",430.997,0.731581,5002.84,55.7491
"2015-01-01 03:05:00 000",432.568,1.55479,5058.30,48.9924
"2015-01-01 03:15:00 000",432.540,1.13397,5190.10,119.543
"2015-01-01 03:25:00 000",434.091,1.47006,5556.69,59.6496
"2015-01-01 03:35:00 000",435.683,0.986637,5648.20,33.9558
"2015-01-01 03:45:00 000",434.926,1.01596,5615.62,36.2872
"2015-01-01 03:55:00 000",436.316,1.46412,5556.52,54.6327
"2015-01-01 04:05:00 000",439.982,1.23938,5546.50,48.4361
"2015-01-01 04:15:00 000",439.928,1.10250,5623.00,22.8316
"2015-01-01 04:25:00 000",439.828,0.812237,5602.56,25.3110
"2015-01-01 04:35:00 000",438.702,1.08344,5646.27,51.1655
"2015-01-01 04:45:00 000",436.544,1.89488,5487.62,115.053
"2015-01-01 04:55:00 000",435.383,1.23253,5156.07,42.8664
"2015-01-01 05:05:00 000",432.563,1.73376,5071.01,58.7495
"2015-01-01 05:15:00 000",432.244,1.63386,4942.50,72.1771
"2015-01-01 05:25:00 000",432.621,0.988643,4999.77,102.762
"2015-01-01 05:35:00 000",433.026,1.26768,5083.06,70.8684
"2015-01-01 05:45:00 000",432.424,0.824222,4920.45,30.2295
"2015-01-01 05:55:00 000",432.320,1.25145,4839.83,82.1672
"2015-01-01 06:05:00 000",432.063,1.11986,4772.07,30.0439
"2015-01-01 06:15:00 000",431.728,0.777972,4738.15,32.3325
"2015-01-01 06:25:00 000",432.585,1.44275,4734.42,73.4928
"2015-01-01 06:35:00 000",432.845,0.833361,4888.00,58.6420
"2015-01-01 06:45:00 000",432.929,0.771092,4990.56,34.1809
"2015-01-01 06:55:00 000",433.923,0.787235,5047.50,46.6768
"2015-01-01 07:05:00 000",435.561,0.959381,5153.05,25.2036
"2015-01-01 07:15:00 000",440.114,2.19868,5170.91,21.6654
"2015-01-01 07:25:00 000",444.405,0.831476,5212.47,26.7912
"2015-01-01 07:35:00 000",444.518,0.796814,5259.24,24.4593
"2015-01-01 07:45:00 000",442.400,1.65781,5317.19,52.5576
"2015-01-01 07:55:00 000",440.745,1.68640,5446.91,61.9061
"2015-01-01 08:05:00 000",441.977,1.28106,5596.79,45.7497
"2015-01-01 08:15:00 000",439.056,1.45538,5860.19,74.8305
"2015-01-01 08:25:00 000",440.138,1.34532,5982.68,28.5872
"2015-01-01 08:35:00 000",441.159,0.710413,6028.04,30.0874
"2015-01-01 08:45:00 000",440.737,0.751931,6115.24,72.1464
"2015-01-01 08:55:00 000",438.963,1.04491,6190.93,42.0911
"2015-01-01 09:05:00 000",437.410,0.817682,6332.51,110.969
"2015-01-01 09:15:00 000",436.862,1.64390,6404.53,42.6814
"2015-01-01 09:25:00 000",434.692,1.12980,6501.90,56.8367
"2015-01-01 09:35:00 000",429.631,1.72405,6789.07,112.865
"2015-01-01 09:45:00 000",428.083,3.08404,7020.22,52.3926
"2015-01-01 09:55:00 000",426.416,1.53784,7148.34,35.6776
"2015-01-01 10:05:00 000",424.653,2.00617,7139.54,103.720
"2015-01-01 10:15:00 000",423.089,0.764044,7080.32,69.6599
"2015-01-01 10:25:00 000",423.071,0.789440,7220.97,35.8629
"2015-01-01 10:35:00 000",422.308,0.769405,7272.32,34.0744
"2015-01-01 10:45:00 000",421.965,0.647565,7404.21,60.4897
"2015-01-01 10:55:00 000",422.643,0.677506,7561.60,52.5858
"2015-01-01 11:05:00 000",422.771,0.896710,7746.38,67.6512
"2015-01-01 11:15:00 000",423.175,0.778531,8031.91,60.5149
"2015-01-01 11:25:00 000",421.800,0.707519,8231.31,80.6288
"2015-01-01 11:35:00 000",429.821,5.62620,8410.39,43.5898
"2015-01-01 11:45:00 000",435.866,3.07252,8304.04,63.8725
"2015-01-01 11:55:00 000",426.699,3.25479,8406.19,47.6843
"2015-01-01 12:05:00 000",424.732,1.15912,8518.36,38.6523
"2015-01-01 12:15:00 000",422.159,2.37329,8643.94,39.2601
"2015-01-01 12:25:00 000",417.924,1.00481,8640.30,46.8301
"2015-01-01 12:35:00 000",417.024,0.696637,8659.81,59.2963
"2015-01-01 12:45:00 000",416.934,0.730726,8633.06,78.7411
"2015-01-01 12:55:00 000",417.105,0.711942,8706.71,50.1917
"2015-01-01 13:05:00 000",417.390,0.704914,8757.33,42.5624
"2015-01-01 13:15:00 000",417.062,0.677242,8818.96,48.0350
"2015-01-01 13:25:00 000",416.749,0.673144,8822.66,31.1498
"2015-01-01 13:35:00 000",416.560,0.675613,8784.96,34.9037
"2015-01-01 13:45:00 000",416.288,0.672848,8802.05,44.2842
"2015-01-01 13:55:00 000",416.434,0.746476,8589.58,145.201
"2015-01-01 14:05:00 000",417.751,1.38168,7565.40,474.784
"2015-01-01 14:15:00 000",419.340,1.69772,6077.48,194.083
"2015-01-01 14:25:00 000",418.984,1.37758,5868.38,31.9082
"2015-01-01 14:35:00 000",420.315,1.36421,5890.59,43.6926
"2015-01-01 14:45:00 000",422.625,1.21058,6006.81,28.7367
"2015-01-01 14:55:00 000",419.820,1.32195,6015.63,31.0278
"2015-01-01 15:05:00 000",419.748,0.823059,6004.31,36.0040
"2015-01-01 15:15:00 000",420.747,0.702411,5998.66,27.6442
"2015-01-01 15:25:00 000",420.596,0.778765,6059.36,25.4891
"2015-01-01 15:35:00 000",419.373,0.860205,6050.41,28.6270
"2015-01-01 15:45:00 000",418.512,0.643529,6012.29,34.9558
"2015-01-01 15:55:00 000",418.427,0.809293,5999.22,98.0476
"2015-01-01 16:05:00 000",420.224,1.21059,5984.62,32.6169
"2015-01-01 16:15:00 000",420.841,0.818145,5951.51,43.1643
"2015-01-01 16:25:00 000",425.695,3.26114,5937.21,58.5664
"2015-01-01 16:35:00 000",431.145,1.41279,6034.77,68.4805
"2015-01-01 16:45:00 000",425.883,3.26032,6006.96,34.7561
"2015-01-01 16:55:00 000",420.185,1.63071,5882.93,88.2084
"2015-01-01 17:05:00 000",419.018,0.712129,5671.68,44.2588
"2015-01-01 17:15:00 000",423.469,2.28513,5626.39,53.3049
"2015-01-01 17:25:00 000",428.726,1.17623,5712.14,40.2299
"2015-01-01 17:35:00 000",429.589,0.754916,5790.54,34.5352
"2015-01-01 17:45:00 000",429.529,0.694606,5804.40,36.5337
"2015-01-01 17:55:00 000",428.503,0.859398,5782.10,37.2027
"2015-01-01 18:05:00 000",428.151,0.801350,5769.59,56.9627
"2015-01-01 18:15:00 000",426.688,1.16800,5671.64,45.6021
"2015-01-01 18:25:00 000",423.700,0.980208,5644.73,37.1510
"2015-01-01 18:35:00 000",422.391,0.987408,5577.69,89.9938
"2015-01-01 18:45:00 000",421.932,0.841345,5498.53,153.504
"2015-01-01 18:55:00 000",423.357,1.08023,5612.77,86.9703
"2015-01-01 19:05:00 000",423.350,0.975836,5570.74,66.0031
"2015-01-01 19:15:00 000",422.884,0.997637,5465.82,75.4491
"2015-01-01 19:25:00 000",422.384,0.925783,5510.56,52.5176
"2015-01-01 19:35:00 000",422.587,0.801834,5453.13,120.178
"2015-01-01 19:45:00 000",424.055,1.33405,5230.29,61.8037
"2015-01-01 19:55:00 000",424.600,1.50542,5139.87,119.440
"2015-01-01 20:05:00 000",425.671,1.64527,5044.38,40.2430
"2015-01-01 20:15:00 000",432.212,2.06152,5105.39,162.390
"2015-01-01 20:25:00 000",434.608,1.41885,5169.03,48.7168
"2015-01-01 20:35:00 000",435.625,1.41175,5097.08,100.885
"2015-01-01 20:45:00 000",431.054,1.65198,4784.88,103.518
"2015-01-01 20:55:00 000",431.838,2.50099,4641.62,87.0800
"2015-01-01 21:05:00 000",434.241,1.86522,4509.94,66.8857
"2015-01-01 21:15:00 000",440.956,2.34837,4308.16,88.6621
"2015-01-01 21:25:00 000",441.979,1.28778,4133.48,59.0034
"2015-01-01 21:35:00 000",440.168,3.43904,4048.00,35.4107
"2015-01-01 21:45:00 000",429.802,3.32610,4020.86,49.0620
"2015-01-01 21:55:00 000",423.773,1.18611,3975.02,34.9164
"2015-01-01 22:05:00 000",422.865,0.888481,3986.34,29.9663
"2015-01-01 22:15:00 000",422.585,0.982042,4005.78,37.7454
"2015-01-01 22:25:00 000",434.935,7.23971,4128.58,82.3579
"2015-01-01 22:35:00 000",437.782,2.12551,4228.10,37.4570
"2015-01-01 22:45:00 000",434.562,1.20098,4123.44,78.1300
"2015-01-01 22:55:00 000",433.748,1.98672,4088.63,43.0451
"2015-01-01 23:05:00 000",430.880,2.64107,4060.30,59.9885
"2015-01-01 23:15:00 000",422.324,1.53917,3899.16,66.5797
"2015-01-01 23:25:00 000",420.709,0.695753,3848.53,26.8204
"2015-01-01 23:35:00 000",420.843,0.636867,3892.21,31.2229
"2015-01-01 23:45:00 000",421.042,0.720168,3911.72,45.3592
"2015-01-01 23:55:00 000",420.994,0.713192,3932.88,37.0785
"2015-01-02 00:05:00 000",420.837,0.856892,3969.79,58.9494
"2015-01-02 00:15:00 000",420.424,0.798260,3994.33,44.3163
"2015-01-02 00:25:00 000",420.323,0.674006,3930.99,58.6082
"2015-01-02 00:35:00 000",420.584,0.660558,3913.56,78.6290
"2015-01-02 00:45:00 000",420.486,0.646872,3849.48,84.1161
"2015-01-02 00:55:00 000",420.549,0.878759,3830.52,59.2408
"2015-01-02 01:05:00 000",421.220,0.702895,3827.50,56.3292
"2015-01-02 01:15:00 000",421.474,0.667172,3829.69,33.9046
"2015-01-02 01:25:00 000",421.476,0.659944,3892.76,47.0306
"2015-01-02 01:35:00 000",421.672,0.699983,3972.84,47.2363
"2015-01-02 01:45:00 000",422.262,0.743726,4119.43,60.9726
"2015-01-02 01:55:00 000",422.304,0.693296,4211.59,35.5532
"2015-01-02 02:05:00 000",422.092,0.735218,4349.36,53.9389
"2015-01-02 02:15:00 000",422.044,0.734541,4496.55,44.8408
"2015-01-02 02:25:00 000",422.340,0.790059,4654.48,65.6947
"2015-01-02 02:35:00 000",422.055,0.841060,4864.01,73.6329
"2015-01-02 02:45:00 000",421.489,0.789325,5011.72,57.7734
"2015-01-02 02:55:00 000",421.163,1.01185,5220.51,63.7948
"2015-01-02 03:05:00 000",420.798,0.690257,5435.52,71.5203
"2015-01-02 03:15:00 000",420.462,0.719154,6029.03,209.431
"2015-01-02 03:25:00 000",420.277,0.984192,6358.49,69.0571
"2015-01-02 03:35:00 000",420.077,0.868751,7026.49,379.938
"2015-01-02 03:45:00 000",420.757,0.770014,7400.76,41.8428
"2015-01-02 03:55:00 000",421.813,0.807107,7425.24,82.0521
"2015-01-02 04:05:00 000",421.925,1.16257,7521.75,60.1172
"2015-01-02 04:15:00 000",422.156,0.751234,7824.33,86.2568
"2015-01-02 04:25:00 000",421.790,0.917230,7977.77,53.7962
"2015-01-02 04:35:00 000",422.013,0.724220,8117.39,55.3118
"2015-01-02 04:45:00 000",422.413,0.752536,8231.78,53.4967
"2015-01-02 04:55:00 000",422.984,0.716925,8470.41,69.6835
"2015-01-02 05:05:00 000",423.333,0.705041,8625.73,48.4480
"2015-01-02 05:15:00 000",423.767,0.677998,8782.37,40.7002
"2015-01-02 05:25:00 000",424.283,0.664949,8832.87,28.5220
"2015-01-02 05:35:00 000",424.567,0.640738,8841.21,25.7320
"2015-01-02 05:45:00 000",424.779,0.614595,8897.55,35.6700
"2015-01-02 05:55:00 000",424.994,0.638733,8986.88,27.9794
"2015-01-02 06:05:00 000",425.245,0.607737,8996.05,26.3627
"2015-01-02 06:15:00 000",425.421,0.613894,9006.23,29.7204
"2015-01-02 06:25:00 000",425.487,0.622013,9066.93,27.9357
"2015-01-02 06:35:00 000",425.627,0.588200,9104.68,30.6934
"2015-01-02 06:45:00 000",425.748,0.626040,9159.52,28.7437
"2015-01-02 06:55:00 000",425.900,0.618050,9205.32,28.7968
"2015-01-02 07:05:00 000",426.067,0.590710,9258.81,30.3167
"2015-01-02 07:15:00 000",425.951,0.610085,9330.16,23.8732
"2015-01-02 07:25:00 000",426.092,0.622865,9350.61,23.7400
"2015-01-02 07:35:00 000",426.369,0.635041,9334.48,27.3697
"2015-01-02 07:45:00 000",426.672,0.577810,9298.70,23.4569
"2015-01-02 07:55:00 000",426.680,0.615679,9319.90,39.9234
"2015-01-02 08:05:00 000",426.501,0.623868,9425.10,26.9844
"2015-01-02 08:15:00 000",426.470,0.632379,9512.65,42.8189
"2015-01-02 08:25:00 000",426.132,0.668470,9621.81,34.1814
"2015-01-02 08:35:00 000",425.717,0.640654,9690.33,30.8643
"2015-01-02 08:45:00 000",425.920,0.788495,9738.60,32.6685
"2015-01-02 08:55:00 000",425.824,0.668621,9819.63,42.0887
"2015-01-02 09:05:00 000",425.467,0.662233,9942.37,45.3495
"2015-01-02 09:15:00 000",425.081,0.661391,10081.9,49.7200
"2015-01-02 09:25:00 000",424.923,0.671869,10212.3,44.0815
"2015-01-02 09:35:00 000",424.777,0.685756,10299.8,28.2162
"2015-01-02 09:45:00 000",424.758,0.679992,10387.5,33.2232
"2015-01-02 09:55:00 000",424.539,0.720534,10441.4,34.9661
"2015-01-02 10:05:00 000",424.520,0.714482,10490.9,32.0056
"2015-01-02 10:15:00 000",424.586,0.720753,10560.1,43.6998
"2015-01-02 10:25:00 000",424.346,0.745877,10660.0,30.6599
"2015-01-02 10:35:00 000",424.667,0.686585,10609.8,32.4861
"2015-01-02 10:45:00 000",425.277,0.709669,10546.4,31.5225
"2015-01-02 10:55:00 000",425.459,0.688079,10640.5,39.2078
"2015-01-02 11:05:00 000",426.099,0.766101,10611.8,31.7440
"2015-01-02 11:15:00 000",426.758,0.648688,10579.6,27.3986
"2015-01-02 11:25:00 000",427.044,1.02243,10599.0,42.7098
"2015-01-02 11:35:00 000",427.297,0.738231,10703.9,42.3367
"2015-01-02 11:45:00 000",427.022,0.796069,10749.1,33.9134
"2015-01-02 11:55:00 000",425.247,0.896737,10832.4,43.6434
"2015-01-02 12:05:00 000",425.218,1.01512,10967.2,58.6100
"2015-01-02 12:15:00 000",429.214,1.86699,11218.9,119.492
"2015-01-02 12:25:00 000",429.793,1.14089,11422.1,154.112
"2015-01-02 12:35:00 000",430.282,1.07360,10930.0,85.8001
"2015-01-02 12:45:00 000",429.576,1.65412,10824.7,33.1999
"2015-01-02 12:55:00 000",428.127,2.09162,10713.1,43.1906
"2015-01-02 13:05:00 000",426.875,1.94628,10772.7,29.7090
"2015-01-02 13:15:00 000",420.113,1.30839,10720.3,44.1075
"2015-01-02 13:25:00 000",419.502,1.40118,10535.6,65.8534
"2015-01-02 13:35:00 000",418.132,0.749352,10399.2,36.6417
"2015-01-02 13:45:00 000",418.188,0.914576,10412.5,33.3685
"2015-01-02 13:55:00 000",417.555,0.653097,10493.0,48.0766
"2015-01-02 14:05:00 000",418.178,1.00120,10314.1,489.038
"2015-01-02 14:15:00 000",419.374,0.904359,8834.08,170.047
"2015-01-02 14:25:00 000",421.581,1.84909,8646.54,73.7972
"2015-01-02 14:35:00 000",423.060,2.18923,8655.95,75.3681
"2015-01-02 14:45:00 000",426.272,2.53843,8653.07,42.3907
"2015-01-02 14:55:00 000",425.424,1.81618,8620.47,41.3688
"2015-01-02 15:05:00 000",427.867,1.19139,8642.47,44.4833
"2015-01-02 15:15:00 000",426.336,1.81691,8640.94,60.2993
"2015-01-02 15:25:00 000",424.983,1.35501,8656.88,63.5728
"2015-01-02 15:35:00 000",424.745,1.16501,8657.38,37.8003
"2015-01-02 15:45:00 000",426.364,2.83725,8623.37,48.9047
"2015-01-02 15:55:00 000",433.013,1.41157,8627.43,69.7372
"2015-01-02 16:05:00 000",433.564,1.50324,8485.54,56.9408
"2015-01-02 16:15:00 000",432.046,1.90366,8492.64,59.2163
"2015-01-02 16:25:00 000",429.862,2.75970,8379.16,46.2874
"2015-01-02 16:35:00 000",429.286,1.68831,8282.32,52.8906
"2015-01-02 16:45:00 000",424.764,1.49720,8078.69,93.0875
"2015-01-02 16:55:00 000",422.562,0.820261,7688.45,114.018
"2015-01-02 17:05:00 000",422.367,1.20457,7346.35,104.250
"2015-01-02 17:15:00 000",427.352,1.32810,7179.41,50.7638
"2015-01-02 17:25:00 000",431.207,2.35717,6907.18,122.651
"2015-01-02 17:35:00 000",432.019,1.38805,6454.87,113.350
"2015-01-02 17:45:00 000",433.196,2.35080,6194.46,43.3620
"2015-01-02 17:55:00 000",425.878,0.852173,6186.46,37.5082
"2015-01-02 18:05:00 000",425.511,1.00977,6117.11,47.9035
"2015-01-02 18:15:00 000",423.848,0.835047,6094.53,58.2228
"2015-01-02 18:25:00 000",423.828,0.862994,6062.31,34.0334
"2015-01-02 18:35:00 000",424.953,0.711575,6059.29,37.7648
"2015-01-02 18:45:00 000",425.294,0.676842,6064.00,42.7096
"2015-01-02 18:55:00 000",425.510,0.666265,6036.13,40.3921
"2015-01-02 19:05:00 000",426.449,0.771717,6030.69,39.5633
"2015-01-02 19:15:00 000",427.328,0.664061,6036.16,33.9252
"2015-01-02 19:25:00 000",427.378,0.670292,6027.80,37.7327
"2015-01-02 19:35:00 000",426.609,0.735984,6009.14,35.4645
"2015-01-02 19:45:00 000",425.784,0.660892,6032.70,33.1083
"2015-01-02 19:55:00 000",425.569,0.597477,5987.86,35.6455
"2015-01-02 20:05:00 000",425.849,0.649874,5977.80,34.6493
"2015-01-02 20:15:00 000",426.389,0.650587,5964.79,30.1288
"2015-01-02 20:25:00 000",427.114,1.26499,5951.75,30.0092
"2015-01-02 20:35:00 000",427.432,0.910113,5986.77,43.8524
"2015-01-02 20:45:00 000",427.619,1.07610,5954.62,49.3350
"2015-01-02 20:55:00 000",427.952,0.657911,5950.40,31.7559
"2015-01-02 21:05:00 000",428.273,0.643303,5976.92,39.5015
"2015-01-02 21:15:00 000",428.449,0.945920,5977.12,30.5063
"2015-01-02 21:25:00 000",428.276,1.06967,6033.84,48.2340
"2015-01-02 21:35:00 000",428.409,1.41448,6012.14,33.0730
"2015-01-02 21:45:00 000",428.198,0.928250,6006.75,26.4644
"2015-01-02 21:55:00 000",428.272,1.02444,5988.08,31.8057
"2015-01-02 22:05:00 000",428.103,0.983854,6000.05,35.5370
"2015-01-02 22:15:00 000",427.539,1.13772,5979.47,32.2841
"2015-01-02 22:25:00 000",427.069,1.09213,5995.78,32.4751
"2015-01-02 22:35:00 000",427.152,0.635273,5943.07,70.2255
"2015-01-02 22:45:00 000",427.163,0.677772,5971.95,39.1104
"2015-01-02 22:55:00 000",427.182,0.630183,5935.95,33.7691
"2015-01-02 23:05:00 000",427.315,0.705587,5969.40,35.8972
"2015-01-02 23:15:00 000",427.253,1.01959,5971.20,25.7537
"2015-01-02 23:25:00 000",427.489,1.17810,5968.32,26.6383
"2015-01-02 23:35:00 000",427.470,1.12666,5989.07,33.0626
"2015-01-02 23:45:00 000",427.243,0.603612,5961.13,20.0387
"2015-01-02 23:55:00 000",427.124,0.694203,5985.10,42.2739
"2015-01-03 00:05:00 000",426.847,0.631636,5976.57,34.7973
"2015-01-03 00:15:00 000",426.834,0.617659,5925.84,30.1922
"2015-01-03 00:25:00 000",426.824,0.598108,5913.14,28.4510
"2015-01-03 00:35:00 000",426.556,0.667039,5925.63,39.4543
"2015-01-03 00:45:00 000",426.164,0.646741,5945.38,26.7778
"2015-01-03 00:55:00 000",425.465,0.650597,5934.99,21.2202
"2015-01-03 01:05:00 000",425.168,0.643003,5948.22,22.1434
"2015-01-03 01:15:00 000",426.187,0.714918,5965.28,24.5811
"2015-01-03 01:25:00 000",427.638,0.913438,5959.29,33.9961
"2015-01-03 01:35:00 000",428.594,0.713313,5977.13,35.2499
"2015-01-03 01:45:00 000",429.339,0.705766,6028.64,29.0537
"2015-01-03 01:55:00 000",429.645,0.867954,6020.66,28.6314
"2015-01-03 02:05:00 000",429.797,0.851363,6040.38,39.3849
"2015-01-03 02:15:00 000",429.649,0.718724,6084.66,29.7100
"2015-01-03 02:25:00 000",429.053,0.917542,6141.31,26.3923
"2015-01-03 02:35:00 000",428.418,0.766712,6152.79,27.0537
"2015-01-03 02:45:00 000",427.839,0.719403,6168.46,33.0399
"2015-01-03 02:55:00 000",427.772,0.929326,6158.28,39.5674
"2015-01-03 03:05:00 000",428.011,0.748087,6200.41,30.8002
"2015-01-03 03:15:00 000",428.053,0.707121,6210.35,28.9175
"2015-01-03 03:25:00 000",427.662,0.696664,6231.63,34.3510
"2015-01-03 03:35:00 000",427.630,0.686558,6235.97,29.2630
"2015-01-03 03:45:00 000",427.307,0.692483,6254.65,23.0230
"2015-01-03 03:55:00 000",427.121,0.682101,6274.85,23.2201
"2015-01-03 04:05:00 000",426.716,1.11451,6259.99,36.3369
"2015-01-03 04:15:00 000",426.793,0.677037,6288.37,20.7390
"2015-01-03 04:25:00 000",426.555,0.666065,6291.65,28.9183
"2015-01-03 04:35:00 000",426.297,0.748208,6288.51,30.8003
"2015-01-03 04:45:00 000",425.892,0.718486,6284.04,26.5912
"2015-01-03 04:55:00 000",425.120,0.910964,6294.63,32.4372
"2015-01-03 05:05:00 000",424.339,0.726140,6299.41,27.0307
"2015-01-03 05:15:00 000",424.584,0.839574,6262.28,23.6728
"2015-01-03 05:25:00 000",425.118,0.681040,6250.22,29.5071
"2015-01-03 05:35:00 000",424.808,0.740357,6262.35,35.8402
"2015-01-03 05:45:00 000",424.223,0.748195,6241.88,34.7364
"2015-01-03 05:55:00 000",423.918,0.783224,6206.61,28.2075
"2015-01-03 06:05:00 000",422.915,0.785158,6196.79,32.7969
"2015-01-03 06:15:00 000",422.273,0.717352,6181.12,39.5380
"2015-01-03 06:25:00 000",422.461,0.781019,6174.90,26.4449
"2015-01-03 06:35:00 000",422.665,0.763927,6174.80,27.6380
"2015-01-03 06:45:00 000",422.769,0.780096,6138.91,31.9040
"2015-01-03 06:55:00 000",422.931,0.721756,6151.46,30.9112
"2015-01-03 07:05:00 000",423.143,0.712878,6137.80,29.8913
"2015-01-03 07:15:00 000",423.613,0.777958,6137.98,30.9622
"2015-01-03 07:25:00 000",422.964,0.732801,6195.91,30.6565
"2015-01-03 07:35:00 000",422.956,0.796338,6208.46,34.9218
"2015-01-03 07:45:00 000",422.332,0.726406,6243.74,31.6035
"2015-01-03 07:55:00 000",422.266,0.692400,6242.62,25.9714
"2015-01-03 08:05:00 000",422.467,0.688820,6274.22,36.8398
"2015-01-03 08:15:00 000",422.613,0.704723,6291.06,30.7062
"2015-01-03 08:25:00 000",422.479,0.794849,6392.86,34.1242
"2015-01-03 08:35:00 000",422.199,0.766949,6645.56,85.7090
"2015-01-03 08:45:00 000",422.161,0.667870,6980.70,106.005
"2015-01-03 08:55:00 000",422.439,0.645392,7042.61,82.3440
"2015-01-03 09:05:00 000",423.295,0.733374,6842.55,38.6902
"2015-01-03 09:15:00 000",423.925,0.690697,6745.20,28.9118
"2015-01-03 09:25:00 000",424.239,0.714775,6621.93,45.1251
"2015-01-03 09:35:00 000",423.510,0.781272,6947.70,127.117
"2015-01-03 09:45:00 000",423.053,0.655171,7245.42,69.4190
"2015-01-03 09:55:00 000",422.615,0.820649,7404.26,42.7880
"2015-01-03 10:05:00 000",421.697,1.38951,7463.16,32.2903
"2015-01-03 10:15:00 000",421.056,0.798375,7428.98,26.4272
"2015-01-03 10:25:00 000",420.950,0.787183,7342.23,35.9941
"2015-01-03 10:35:00 000",420.951,0.691514,7230.34,46.0042
"2015-01-03 10:45:00 000",421.059,0.711411,7158.90,27.4567
"2015-01-03 10:55:00 000",421.739,0.725003,7159.09,30.5468
"2015-01-03 11:05:00 000",422.344,0.672443,7150.40,30.1486
"2015-01-03 11:15:00 000",422.726,0.852020,7123.24,32.9037
"2015-01-03 11:25:00 000",422.701,0.856657,7161.07,36.4283
"2015-01-03 11:35:00 000",422.475,1.25663,7041.27,33.1348
"2015-01-03 11:45:00 000",426.510,1.49091,7014.61,35.0320
"2015-01-03 11:55:00 000",425.789,2.00799,7054.60,54.3270
"2015-01-03 12:05:00 000",420.545,1.03674,7000.17,66.9585
"2015-01-03 12:15:00 000",419.646,0.963300,6996.76,45.7138
"2015-01-03 12:25:00 000",419.248,0.934238,7078.88,34.4912
"2015-01-03 12:35:00 000",419.189,0.699153,7162.36,40.5663
"2015-01-03 12:45:00 000",419.529,0.702561,7188.82,26.6739
"2015-01-03 12:55:00 000",420.705,1.02117,7195.72,29.3475
"2015-01-03 13:05:00 000",422.250,1.05672,7222.28,33.4786
"2015-01-03 13:15:00 000",421.976,0.979714,7188.65,36.5703
"2015-01-03 13:25:00 000",421.563,0.831131,7231.55,39.0584
"2015-01-03 13:35:00 000",421.518,0.928940,7238.31,33.6096
"2015-01-03 13:45:00 000",421.554,0.762765,7242.30,49.7672
"2015-01-03 13:55:00 000",421.710,0.666261,7207.90,29.4851
"2015-01-03 14:05:00 000",422.184,0.739151,7214.56,28.1062
"2015-01-03 14:15:00 000",422.865,0.674494,7229.78,28.4650
"2015-01-03 14:25:00 000",422.849,0.712141,7245.83,28.7772
"2015-01-03 14:35:00 000",422.897,0.721868,7238.78,40.3299
"2015-01-03 14:45:00 000",422.847,0.691348,7254.14,37.4112
"2015-01-03 14:55:00 000",423.058,0.693955,7295.74,26.1614
"2015-01-03 15:05:00 000",423.603,0.722518,7316.57,21.6759
"2015-01-03 15:15:00 000",424.529,0.684210,7317.93,31.2010
"2015-01-03 15:25:00 000",424.977,0.760933,7288.32,31.9928
"2015-01-03 15:35:00 000",425.178,0.754788,7315.74,28.2872
"2015-01-03 15:45:00 000",425.341,0.798705,7258.14,27.9714
"2015-01-03 15:55:00 000",425.909,0.860613,7280.98,25.9962
"2015-01-03 16:05:00 000",426.175,0.724421,7272.19,29.3118
"2015-01-03 16:15:00 000",425.805,0.729537,7339.17,24.8534
"2015-01-03 16:25:00 000",425.732,0.799666,7317.37,28.0827
"2015-01-03 16:35:00 000",425.808,1.35902,7264.89,33.0084
"2015-01-03 16:45:00 000",426.334,1.05529,7190.49,26.3479
"2015-01-03 16:55:00 000",426.804,0.897960,7113.40,55.4979
"2015-01-03 17:05:00 000",426.871,0.718813,7078.68,29.7191
"2015-01-03 17:15:00 000",427.573,1.07064,7031.10,37.2503
"2015-01-03 17:25:00 000",428.339,1.07712,6969.35,55.5962
"2015-01-03 17:35:00 000",429.658,1.79825,6939.06,36.0134
"2015-01-03 17:45:00 000",429.572,0.775220,6890.77,30.4751
"2015-01-03 17:55:00 000",429.295,0.793963,6747.36,50.0425
"2015-01-03 18:05:00 000",431.041,0.851451,6707.59,31.5623